Radiation Dose at Monitoring Post of Fukushima Daini Nuclear Power Station
Date,Time,MP-1(microSv/h),MP-2(microSv/h),MP-3(microSv/h),MP-4(microSv/h),MP-5(microSv/h),MP-6(microSv/h),MP-7(microSv/h),Wind Direction,Wind Velocity(m/s),Rain
2019/08/30,00:00,0.187,0.166,0.282,0.267,0.264,0.142,0.087,-,CALM,No
2019/08/30,00:10,0.187,0.165,0.285,0.266,0.265,0.142,0.087,northwest,1.2,No
2019/08/30,00:20,0.185,0.164,0.283,0.266,0.262,0.142,0.087,northwest,1.3,No
2019/08/30,00:30,0.188,0.166,0.283,0.267,0.262,0.142,0.087,north-northwest,1.0,No
2019/08/30,00:40,0.187,0.165,0.284,0.265,0.265,0.142,0.087,north-northwest,1.0,No
2019/08/30,00:50,0.187,0.166,0.282,0.266,0.262,0.141,0.087,north,1.1,No
2019/08/30,01:00,0.189,0.165,0.284,0.267,0.262,0.143,0.088,north,1.3,No
2019/08/30,01:10,0.187,0.164,0.284,0.265,0.266,0.142,0.086,north-northwest,1.7,No
2019/08/30,01:20,0.186,0.166,0.282,0.267,0.262,0.142,0.087,north-northwest,1.1,No
2019/08/30,01:30,0.187,0.164,0.285,0.267,0.263,0.142,0.088,north-northeast,0.8,No
2019/08/30,01:40,0.188,0.166,0.284,0.264,0.264,0.141,0.087,north-northeast,0.8,No
2019/08/30,01:50,0.187,0.164,0.282,0.268,0.263,0.142,0.087,north,1.0,No
2019/08/30,02:00,0.188,0.165,0.284,0.265,0.263,0.142,0.088,north-northeast,1.1,No
2019/08/30,02:10,0.186,0.165,0.282,0.265,0.266,0.141,0.087,north-northeast,1.5,No
2019/08/30,02:20,0.187,0.164,0.283,0.268,0.261,0.142,0.087,north,0.8,No
2019/08/30,02:30,0.188,0.164,0.285,0.265,0.264,0.142,0.087,-,CALM,No
2019/08/30,02:40,0.187,0.165,0.282,0.266,0.265,0.141,0.087,-,CALM,No
2019/08/30,02:50,0.188,0.165,0.284,0.267,0.261,0.143,0.088,east,0.6,No
2019/08/30,03:00,0.188,0.165,0.284,0.265,0.264,0.142,0.087,east,0.7,No
2019/08/30,03:10,0.186,0.165,0.282,0.268,0.265,0.141,0.087,-,CALM,No
2019/08/30,03:20,0.188,0.164,0.285,0.267,0.261,0.142,0.088,-,CALM,No
2019/08/30,03:30,0.187,0.166,0.284,0.265,0.264,0.142,0.087,north-northeast,0.6,No
2019/08/30,03:40,0.187,0.164,0.284,0.268,0.265,0.142,0.088,north-northwest,0.6,No
2019/08/30,03:50,0.188,0.166,0.285,0.267,0.262,0.142,0.087,northwest,2.5,No
2019/08/30,04:00,0.186,0.165,0.283,0.266,0.265,0.142,0.087,northwest,2.9,No
2019/08/30,04:10,0.187,0.165,0.284,0.267,0.265,0.143,0.088,north-northwest,2.2,No
2019/08/30,04:20,0.187,0.166,0.283,0.264,0.262,0.143,0.087,northwest,1.7,No
2019/08/30,04:30,0.186,0.165,0.282,0.267,0.265,0.142,0.088,north-northwest,1.1,No
2019/08/30,04:40,0.187,0.165,0.285,0.266,0.263,0.142,0.088,north,1.8,No
2019/08/30,04:50,0.187,0.165,0.283,0.264,0.262,0.142,0.088,north-northwest,1.4,No
2019/08/30,05:00,0.186,0.165,0.284,0.266,0.266,0.141,0.088,north-northwest,2.2,No
2019/08/30,05:10,0.188,0.166,0.285,0.265,0.263,0.143,0.088,north-northwest,2.2,No
2019/08/30,05:20,0.186,0.166,0.283,0.266,0.263,0.142,0.087,north-northwest,1.4,No
2019/08/30,05:30,0.187,0.165,0.285,0.267,0.266,0.142,0.088,north,1.4,No
2019/08/30,05:40,0.188,0.165,0.285,0.264,0.263,0.141,0.088,northeast,2.2,No
2019/08/30,05:50,0.185,0.166,0.283,0.267,0.263,0.141,0.087,north-northeast,0.9,No
2019/08/30,06:00,0.187,0.166,0.287,0.267,0.264,0.143,0.088,north-northeast,1.3,No
2019/08/30,06:10,0.187,0.165,0.282,0.263,0.262,0.143,0.087,west-northwest,1.3,No
2019/08/30,06:20,0.186,0.165,0.285,0.268,0.264,0.142,0.088,northwest,1.7,No
2019/08/30,06:30,0.188,0.166,0.285,0.266,0.264,0.143,0.088,north-northwest,0.7,No
2019/08/30,06:40,0.186,0.164,0.283,0.263,0.264,0.142,0.087,north-northeast,0.8,No
2019/08/30,06:50,0.185,0.166,0.284,0.268,0.261,0.141,0.087,north-northwest,0.9,No
2019/08/30,07:00,0.187,0.165,0.286,0.267,0.263,0.143,0.087,northwest,2.2,No
2019/08/30,07:10,0.189,0.166,0.282,0.264,0.265,0.142,0.087,north-northwest,1.9,No
2019/08/30,07:20,0.186,0.164,0.281,0.264,0.263,0.142,0.087,northwest,1.5,No
2019/08/30,07:30,0.186,0.166,0.285,0.267,0.261,0.141,0.087,north,1.2,No
2019/08/30,07:40,0.188,0.166,0.284,0.264,0.263,0.142,0.088,north-northeast,1.3,No
2019/08/30,07:50,0.187,0.165,0.282,0.263,0.263,0.143,0.087,north-northeast,1.2,No
2019/08/30,08:00,0.186,0.165,0.279,0.263,0.266,0.142,0.088,-,CALM,No
2019/08/30,08:10,0.186,0.164,0.283,0.267,0.266,0.141,0.088,-,CALM,No
2019/08/30,08:20,0.186,0.164,0.285,0.268,0.265,0.143,0.087,-,CALM,No
2019/08/30,08:30,0.184,0.164,0.284,0.266,0.263,0.142,0.087,-,CALM,No
2019/08/30,08:40,0.185,0.163,0.281,0.265,0.261,0.142,0.087,-,CALM,No
2019/08/30,08:50,0.185,0.163,0.280,0.264,0.263,0.142,0.087,-,CALM,No
2019/08/30,09:00,0.185,0.164,0.281,0.263,0.262,0.142,0.087,south,0.8,No
2019/08/30,09:10,0.188,0.165,0.287,0.263,0.263,0.142,0.087,south,0.8,No
2019/08/30,09:20,0.189,0.165,0.285,0.263,0.264,0.142,0.088,south-southeast,0.9,No
2019/08/30,09:30,0.188,0.166,0.284,0.267,0.263,0.142,0.089,southeast,1.0,No
2019/08/30,09:40,0.186,0.167,0.282,0.268,0.267,0.143,0.088,south,0.7,No
2019/08/30,09:50,0.186,0.167,0.282,0.267,0.266,0.143,0.088,south-southeast,0.7,No
2019/08/30,10:00,0.188,0.166,0.286,0.266,0.265,0.142,0.088,east-southeast,0.7,No
2019/08/30,10:10,0.189,0.166,0.286,0.265,0.264,0.142,0.087,-,CALM,No
2019/08/30,10:20,0.187,0.164,0.284,0.267,0.263,0.142,0.088,-,CALM,No
2019/08/30,10:30,0.187,0.164,0.281,0.269,0.262,0.143,0.088,-,CALM,No
2019/08/30,10:40,0.186,0.165,0.281,0.268,0.262,0.144,0.089,south-southeast,1.3,No
2019/08/30,10:50,0.186,0.167,0.287,0.266,0.263,0.142,0.087,southeast,2.1,No
2019/08/30,11:00,0.185,0.167,0.285,0.264,0.263,0.142,0.088,east-southeast,2.1,No
2019/08/30,11:10,0.187,0.167,0.284,0.265,0.263,0.142,0.087,south-southeast,0.9,No
2019/08/30,11:20,0.189,0.166,0.283,0.265,0.263,0.142,0.087,southeast,1.3,No
2019/08/30,11:30,0.189,0.165,0.281,0.264,0.263,0.142,0.087,southeast,2.3,No
2019/08/30,11:40,0.189,0.166,0.282,0.264,0.264,0.142,0.088,southeast,1.1,No
2019/08/30,11:50,0.188,0.165,0.282,0.264,0.266,0.143,0.088,southeast,2.0,No
2019/08/30,12:00,0.187,0.165,0.282,0.265,0.265,0.142,0.088,east-southeast,2.0,No
2019/08/30,12:10,0.187,0.166,0.282,0.267,0.264,0.143,0.088,south-southeast,0.7,No
2019/08/30,12:20,0.186,0.165,0.287,0.271,0.264,0.144,0.088,-,CALM,No
2019/08/30,12:30,0.186,0.165,0.286,0.269,0.264,0.144,0.087,south-southeast,1.1,No
2019/08/30,12:40,0.187,0.164,0.285,0.267,0.264,0.143,0.088,southeast,1.8,No
2019/08/30,12:50,0.187,0.166,0.284,0.267,0.265,0.143,0.087,southeast,1.9,No
2019/08/30,13:00,0.186,0.166,0.282,0.266,0.264,0.143,0.088,southeast,3.5,Yes
2019/08/30,13:10,0.190,0.166,0.283,0.265,0.266,0.143,0.089,southeast,3.3,Yes
2019/08/30,13:20,0.190,0.167,0.287,0.271,0.269,0.144,0.089,south-southeast,3.4,No
2019/08/30,13:30,0.188,0.166,0.287,0.270,0.269,0.143,0.088,south-southeast,1.6,No
2019/08/30,13:40,0.188,0.167,0.284,0.267,0.266,0.143,0.088,east-southeast,0.6,Yes
2019/08/30,13:50,0.187,0.165,0.283,0.266,0.264,0.142,0.088,-,CALM,Yes
2019/08/30,14:00,0.188,0.165,0.284,0.267,0.264,0.143,0.089,north-northwest,0.8,Yes
2019/08/30,14:10,0.190,0.167,0.288,0.271,0.266,0.144,0.089,north-northwest,3.1,Yes
2019/08/30,14:20,0.188,0.168,0.286,0.270,0.268,0.144,0.089,north,3.6,Yes
2019/08/30,14:30,0.188,0.166,0.283,0.268,0.268,0.143,0.088,north,2.6,Yes
2019/08/30,14:40,0.187,0.166,0.284,0.267,0.264,0.143,0.088,north-northwest,1.9,No
2019/08/30,14:50,0.190,0.166,0.287,0.270,0.264,0.143,0.089,east,0.9,Yes
2019/08/30,15:00,0.190,0.167,0.285,0.269,0.264,0.143,0.089,north-northeast,2.5,Yes
2019/08/30,15:10,0.188,0.166,0.284,0.266,0.268,0.144,0.088,northeast,2.6,No
2019/08/30,15:20,0.187,0.166,0.283,0.265,0.267,0.143,0.087,north-northeast,1.2,Yes
2019/08/30,15:30,0.189,0.168,0.288,0.269,0.264,0.143,0.089,northeast,2.1,Yes
2019/08/30,15:40,0.190,0.167,0.286,0.269,0.265,0.144,0.088,northeast,1.6,Yes
2019/08/30,15:50,0.188,0.165,0.283,0.267,0.268,0.143,0.088,east,1.5,No
2019/08/30,16:00,0.187,0.165,0.286,0.267,0.267,0.143,0.088,-,CALM,Yes
2019/08/30,16:10,0.189,0.167,0.287,0.269,0.263,0.143,0.089,west-northwest,2.3,Yes
2019/08/30,16:20,0.189,0.166,0.284,0.268,0.267,0.144,0.089,north-northwest,2.5,Yes
2019/08/30,16:30,0.188,0.165,0.283,0.265,0.267,0.146,0.089,northwest,2.1,No
2019/08/30,16:40,0.187,0.168,0.287,0.269,0.264,0.144,0.089,north-northwest,2.8,No
2019/08/30,16:50,0.189,0.166,0.286,0.270,0.264,0.143,0.089,north-northwest,2.5,No
2019/08/30,17:00,0.190,0.165,0.282,0.268,0.267,0.144,0.088,north,3.6,No
2019/08/30,17:10,0.187,0.165,0.284,0.265,0.267,0.144,0.088,north-northwest,4.0,No
2019/08/30,17:20,0.186,0.166,0.286,0.269,0.265,0.143,0.089,northwest,2.7,No
2019/08/30,17:30,0.189,0.167,0.284,0.268,0.264,0.142,0.089,northwest,2.5,No
2019/08/30,17:40,0.188,0.166,0.283,0.266,0.267,0.143,0.088,northwest,2.6,No
2019/08/30,17:50,0.186,0.167,0.287,0.267,0.265,0.144,0.088,northwest,3.2,No
2019/08/30,18:00,0.188,0.166,0.285,0.269,0.263,0.144,0.089,northwest,3.8,No
2019/08/30,18:10,0.190,0.165,0.283,0.267,0.264,0.143,0.087,north-northwest,2.8,No
2019/08/30,18:20,0.186,0.167,0.284,0.266,0.267,0.143,0.087,north-northwest,3.4,No
2019/08/30,18:30,0.186,0.167,0.286,0.269,0.264,0.143,0.088,north-northwest,3.8,No
2019/08/30,18:40,0.189,0.165,0.283,0.267,0.262,0.143,0.088,north-northwest,4.8,No
2019/08/30,18:50,0.188,0.166,0.283,0.265,0.267,0.142,0.087,north-northwest,5.5,No
2019/08/30,19:00,0.187,0.167,0.286,0.268,0.265,0.143,0.088,northwest,3.6,No
2019/08/30,19:10,0.188,0.165,0.285,0.269,0.262,0.142,0.089,north-northwest,4.5,No
2019/08/30,19:20,0.187,0.166,0.283,0.266,0.268,0.141,0.088,north-northwest,4.6,No
2019/08/30,19:30,0.187,0.165,0.286,0.267,0.265,0.142,0.088,north-northwest,4.3,No
2019/08/30,19:40,0.187,0.166,0.285,0.269,0.263,0.142,0.088,northwest,1.6,No
2019/08/30,19:50,0.188,0.165,0.283,0.266,0.264,0.142,0.087,north-northwest,3.8,No
2019/08/30,20:00,0.188,0.166,0.286,0.266,0.266,0.143,0.087,north-northwest,3.7,No
2019/08/30,20:10,0.186,0.166,0.284,0.268,0.264,0.143,0.088,north,4.1,No
2019/08/30,20:20,0.187,0.164,0.283,0.268,0.266,0.141,0.087,north-northwest,3.7,No
2019/08/30,20:30,0.187,0.166,0.286,0.265,0.266,0.144,0.088,northwest,2.4,No
2019/08/30,20:40,0.187,0.166,0.286,0.268,0.264,0.143,0.088,northwest,3.5,No
2019/08/30,20:50,0.189,0.165,0.283,0.269,0.264,0.142,0.088,north-northwest,2.9,No
2019/08/30,21:00,0.188,0.167,0.285,0.266,0.267,0.143,0.087,north-northwest,1.3,No
2019/08/30,21:10,0.187,0.166,0.286,0.269,0.264,0.143,0.088,-,CALM,No
2019/08/30,21:20,0.189,0.166,0.283,0.267,0.262,0.143,0.088,-,CALM,No
2019/08/30,21:30,0.188,0.166,0.285,0.265,0.266,0.142,0.087,-,CALM,No
2019/08/30,21:40,0.186,0.165,0.286,0.270,0.265,0.143,0.089,-,CALM,No
2019/08/30,21:50,0.188,0.167,0.285,0.269,0.262,0.142,0.088,south-southwest,1.1,No
2019/08/30,22:00,0.190,0.166,0.284,0.267,0.267,0.143,0.088,southeast,0.8,No
2019/08/30,22:10,0.188,0.166,0.286,0.268,0.267,0.144,0.088,-,CALM,No
2019/08/30,22:20,0.187,0.165,0.286,0.270,0.262,0.142,0.088,-,CALM,No
2019/08/30,22:30,0.189,0.167,0.284,0.268,0.267,0.142,0.088,-,CALM,No
2019/08/30,22:40,0.188,0.165,0.286,0.268,0.266,0.144,0.088,-,CALM,No
2019/08/30,22:50,0.187,0.166,0.284,0.269,0.263,0.142,0.089,-,CALM,No
2019/08/30,23:00,0.190,0.167,0.284,0.267,0.266,0.142,0.088,-,CALM,No
2019/08/30,23:10,0.189,0.165,0.287,0.268,0.267,0.143,0.088,northwest,0.6,No
2019/08/30,23:20,0.188,0.168,0.286,0.270,0.263,0.143,0.089,-,CALM,No
2019/08/30,23:30,0.190,0.166,0.286,0.268,0.266,0.142,0.088,-,CALM,No
2019/08/30,23:40,0.189,0.166,0.287,0.268,0.268,0.143,0.089,west-southwest,0.8,No
2019/08/30,23:50,0.187,0.168,0.286,0.269,0.265,0.143,0.089,west-southwest,1.0,No
